FW8431 Weather Reports


time (UTC)temp
C
wind
direction
speed
KPH
gust
KPH
rain 1hr
cm
rain 24hr
cm
rain mn
cm
humidity
%
barometer
mb
20260509000049 14 87 0.0 6.4 0.00 0.00 0.00 70 1014.9
20260508234553 15 117 1.6 9.7 0.00 0.00 0.00 69 1015.0
20260508233112 15 84 1.6 6.4 0.00 0.00 0.00 69 1015.0
20260508231557 15 117 4.8 9.7 0.00 0.00 0.00 67 1014.9
20260508230058 16 129 3.2 9.7 0.00 0.00 0.00 65 1014.7
20260508224610 16 135 1.6 6.4 0.00 0.00 0.00 64 1014.8
20260508223052 16 52 3.2 11.3 0.00 0.00 0.00 62 1014.9
20260508221553 17 352 3.2 16.1 0.00 0.00 0.00 62 1015.0
20260508220048 18 90 0.0 8.0 0.00 0.00 0.00 58 1014.7
20260508214550 17 142 1.6 11.3 0.00 0.00 0.00 59 1014.7
20260508213052 17 80 3.2 11.3 0.00 0.00 0.00 59 1014.9
20260508211549 17 130 1.6 16.1 0.00 0.00 0.00 62 1014.7
20260508210050 17 133 6.4 14.5 0.00 0.00 0.00 61 1014.7
20260508204554 17 348 4.8 14.5 0.00 0.00 0.00 61 1014.9
20260508203055 17 115 4.8 14.5 0.00 0.00 0.00 59 1015.0
20260508201551 17 133 6.4 14.5 0.00 0.00 0.00 60 1014.9
20260508194602 17 88 3.2 9.7 0.00 0.00 0.00 61 1015.5
20260508193049 17 113 1.6 12.9 0.00 0.00 0.00 57 1015.8
20260508191556 17 119 3.2 12.9 0.00 0.00 0.00 61 1016.0
20260508190054 16 163 8.0 17.7 0.00 0.00 0.00 58 1016.0
20260508184558 17 254 6.4 17.7 0.00 0.00 0.00 58 1016.4
20260508183050 16 42 3.2 12.9 0.00 0.00 0.00 59 1016.6
20260508181556 17 126 1.6 16.1 0.00 0.00 0.00 60 1016.7
20260508180058 16 247 8.0 14.5 0.00 0.00 0.00 57 1016.7
20260508174611 16 254 4.8 16.1 0.00 0.00 0.00 59 1017.0
20260508173053 16 58 4.8 14.5 0.00 0.00 0.00 60 1017.4
20260508171554 15 167 4.8 16.1 0.00 0.00 0.00 60 1017.3
20260508170056 15 0 1.6 12.9 0.00 0.00 0.00 60 1017.6
20260508164551 15 92 1.6 16.1 0.00 0.00 0.00 61 1017.8
20260508163056 15 79 3.2 14.5 0.00 0.00 0.00 58 1018.1
20260508161556 15 125 4.8 12.9 0.00 0.00 0.00 61 1018.3
20260508160055 14 142 6.4 12.9 0.00 0.00 0.00 59 1018.5
20260508154558 14 132 3.2 9.7 0.00 0.00 0.00 58 1018.6
20260508153057 14 194 1.6 9.7 0.00 0.00 0.00 63 1018.8
20260508151558 13 122 3.2 9.7 0.00 0.00 0.00 61 1018.9
20260508150053 13 211 3.2 8.0 0.00 0.00 0.00 62 1018.8
20260508144552 13 119 1.6 6.4 0.00 0.00 0.00 61 1018.9
20260508143058 12 109 0.0 4.8 0.00 0.00 0.00 64 1019.2
20260508141552 12 69 0.0 4.8 0.00 0.00 0.00 70 1019.3
20260508140059 11 0 0.0 3.2 0.00 0.00 0.00 70 1019.5
20260508134553 10 0 1.6 4.8 0.00 0.00 0.00 75 1019.5
20260508133057 9 267 0.0 3.2 0.00 0.00 0.00 81 1019.5
20260508131556 8 0 1.6 4.8 0.00 0.00 0.00 87 1019.7
20260508130105 8 355 0.0 1.6 0.00 0.00 0.00 90 1019.6
20260508124555 7 102 0.0 1.6 0.00 0.03 0.00 95 1019.4
20260508123057 6 0 0.0 1.6 0.00 0.03 0.00 97 1019.3
20260508121557 5 0 0.0 1.6 0.00 0.03 0.00 96 1019.2
20260508120052 3 0 0.0 0.0 0.00 0.03 0.00 96 1019.0
20260508114554 3 0 0.0 0.0 0.00 0.13 0.00 95 1018.8
20260508113107 3 0 0.0 1.6 0.00 0.13 0.00 95 1018.6
20260508111558 3 0 0.0 0.0 0.00 0.13 0.00 95 1018.4
20260508110051 3 0 0.0 1.6 0.00 0.13 0.00 95 1017.9
20260508104600 3 0 0.0 1.6 0.00 0.38 0.00 95 1017.8
20260508103052 3 0 0.0 1.6 0.00 0.38 0.00 95 1017.6
20260508101551 4 0 0.0 1.6 0.00 0.38 0.00 96 1017.4
20260508100055 4 0 0.0 1.6 0.00 0.38 0.00 95 1017.3
20260508094558 3 0 0.0 0.0 0.00 0.38 0.00 95 1017.2
20260508093056 3 0 0.0 0.0 0.00 0.38 0.00 95 1017.1
20260508091605 4 0 0.0 0.0 0.00 0.38 0.00 95 1017.2
20260508090104 4 0 0.0 3.2 0.00 0.38 0.00 95 1017.0
20260508084554 4 0 0.0 1.6 0.00 0.38 0.00 95 1017.1
20260508083053 4 0 0.0 3.2 0.00 0.38 0.00 95 1017.0
20260508081606 5 0 0.0 3.2 0.00 0.38 0.00 95 1016.7
20260508080054 4 150 0.0 4.8 0.00 0.38 0.00 95 1016.6
20260508074551 5 0 0.0 3.2 0.00 0.38 0.00 95 1016.6
20260508073105 5 0 0.0 1.6 0.00 0.38 0.00 95 1016.7
20260508071604 5 148 0.0 3.2 0.00 0.38 0.00 94 1016.5
20260508070100 5 0 0.0 0.0 0.00 0.38 0.00 94 1016.7
20260508064554 5 0 0.0 0.0 0.00 0.41 0.00 94 1016.6
20260508063053 5 0 0.0 3.2 0.00 0.41 0.00 94 1016.8
20260508061556 6 0 0.0 1.6 0.00 0.41 0.00 94 1016.8
20260508060051 6 0 0.0 1.6 0.00 0.41 0.00 94 1016.7
20260508054605 6 0 0.0 3.2 0.00 0.43 0.00 94 1016.8
20260508053054 6 142 0.0 3.2 0.00 0.43 0.00 94 1016.7
20260508051552 6 0 0.0 0.0 0.00 0.43 0.00 94 1017.0
20260508050057 6 0 0.0 0.0 0.00 0.43 0.00 93 1016.8
20260508044600 6 0 0.0 0.0 0.00 0.74 0.00 93 1016.8
20260508043054 6 0 0.0 3.2 0.00 0.74 0.00 92 1016.6
20260508041554 6 0 0.0 3.2 0.00 0.74 0.00 92 1016.6
20260508040059 6 0 0.0 3.2 0.00 0.74 0.00 91 1016.6
20260508034551 6 0 0.0 1.6 0.00 0.81 0.74 91 1016.6
20260508033115 6 0 0.0 1.6 0.00 0.81 0.74 91 1016.6
20260508031609 6 0 0.0 3.2 0.00 0.81 0.74 91 1016.6
20260508030111 6 0 0.0 3.2 0.00 0.81 0.74 91 1016.6
20260508024621 6 0 0.0 1.6 0.00 0.84 0.74 90 1016.7
20260508023058 6 0 0.0 1.6 0.00 0.84 0.74 90 1016.5
20260508021559 7 0 0.0 1.6 0.00 0.84 0.74 89 1016.0
20260508020107 7 0 0.0 0.0 0.00 0.84 0.74 89 1015.8
20260508014611 7 142 0.0 1.6 0.00 0.97 0.74 88 1015.7
20260508013106 8 0 0.0 0.0 0.00 0.97 0.74 87 1015.5
20260508011601 8 0 0.0 4.8 0.00 0.97 0.74 86 1015.4
20260508010106 8 0 0.0 3.2 0.00 0.97 0.74 85 1015.1
20260508004554 9 142 3.2 4.8 0.00 1.12 0.74 83 1015.0
20260508003056 10 0 0.0 3.2 0.00 1.12 0.74 81 1015.0
20260508001555 11 0 0.0 14.5 0.00 1.12 0.74 76 1014.8